Seattle, WA

10:43 PM PST on January 23, 2018 (GMT -0800)
Seattle-Tacoma International

Weather History for KSEA - March, 2014

Change the Weather History Date:

Monday, March 3, 2014

  Actual Average Record
Temperature  
Mean Temperature 53 °F 45 °F  
Max Temperature 58 °F 52 °F 69 °F (1965)
Min Temperature 48 °F 38 °F 20 °F (1989)
Degree Days  
Heating Degree Days 12 20  
Month to date heating degree days 54 60  
Since 1 July heating degree days 3129 3314  
Cooling Degree Days 0 0  
Month to date cooling degree days 0 0  
Year to date cooling degree days 0 0  
Moisture  
Dew Point 46 °F    
Average Humidity 78    
Maximum Humidity 93    
Minimum Humidity 62    
Precipitation  
Precipitation 0.42 in 0.12 in 2.08 in (1950)
Month to date precipitation 1.19 0.39  
Year to date precipitation 11.00 9.46  
Snow  
Snow 0.00 in - 4.70 in (1960)
Month to date snowfall T  
Since 1 July snowfall 4.0  
Snow Depth 0.00 in    
Sea Level Pressure  
Sea Level Pressure 29.76 in    
Wind  
Wind Speed 12 mph (South)    
Max Wind Speed 20 mph    
Max Gust Speed 30 mph    
Visibility 7 miles    
Events Rain    
T = Trace of Precipitation, MM = Missing Value Source: NWS Daily Summary

Daily Weather History Graph

Daily Weather History Graph

Search for Another Location

Airport or City:

Trip Planner

Search our weather history database for the weather conditions in past years. The results will help you decide how hot, cold, wet, or windy it might be!

Date:

Astronomy

Mar. 03, 2014 Rise Set
Actual Time 6:45 AM PST 5:57 PM PST
Civil Twilight 6:14 AM PST 6:28 PM PST
Nautical Twilight 5:39 AM PST 7:03 PM PST
Astronomical Twilight 5:03 AM PST 7:39 PM PST
Moon 7:44 AM PST (3/3) 9:22 PM PST (3/3)
Length of Visible Light 12h 13m
Length of Day
11h 11m
Waxing Crescent, 8% of the Moon is Illuminated
Mar 3
Waxing Crescent
Mar 8
First Quarter
Mar 16
Full
Mar 23
Last Quarter
Mar 30
New

Hourly Weather History & Observations

Time (PST) Temp. Dew Point Humidity Pressure Visibility Wind Dir Wind Speed Gust Speed Precip Events Conditions
12:31 AM 48.2 °F 44.6 °F 87% 29.76 in 10.0 mi SSW 11.5 mph - N/A   Overcast
12:53 AM 48.9 °F 44.1 °F 83% 29.79 in 10.0 mi SSW 13.8 mph - 0.00 in Rain Light Rain
1:53 AM 48.0 °F 46.0 °F 93% 29.79 in 4.0 mi South 15.0 mph - 0.02 in Rain Light Rain
2:30 AM 48.2 °F 46.4 °F 93% 29.76 in 2.0 mi South 12.7 mph - 0.01 in Rain Light Rain
2:41 AM 48.2 °F 46.4 °F 93% 29.76 in 6.0 mi South 12.7 mph - 0.02 in Rain Light Rain
2:53 AM 48.9 °F 46.0 °F 90% 29.78 in 6.0 mi South 11.5 mph - 0.02 in   Overcast
3:19 AM 48.2 °F 46.4 °F 93% 29.75 in 10.0 mi SSE 9.2 mph - 0.01 in Rain Light Rain
3:53 AM 48.0 °F 45.0 °F 89% 29.77 in 10.0 mi SSE 9.2 mph - 0.01 in   Mostly Cloudy
4:53 AM 50.0 °F 46.9 °F 89% 29.75 in 5.0 mi South 11.5 mph - 0.00 in Rain Light Rain
5:53 AM 48.9 °F 46.0 °F 90% 29.72 in 7.0 mi South 5.8 mph - 0.03 in Rain Light Rain
6:19 AM 48.2 °F 46.4 °F 93% 29.69 in 6.0 mi SSE 6.9 mph - 0.02 in Rain Light Rain
6:53 AM 48.0 °F 46.0 °F 93% 29.71 in 6.0 mi SSE 6.9 mph - 0.06 in Rain Light Rain
7:53 AM 48.9 °F 45.0 °F 86% 29.71 in 6.0 mi South 11.5 mph - 0.13 in Rain Light Rain
8:18 AM 48.2 °F 44.6 °F 87% 29.70 in 6.0 mi South 10.4 mph - 0.04 in Rain Rain
8:53 AM 48.0 °F 44.1 °F 86% 29.70 in 8.0 mi SSE 8.1 mph - 0.06 in Rain Light Rain
9:19 AM 48.2 °F 44.6 °F 87% 29.68 in 3.0 mi South 6.9 mph - 0.01 in Rain Light Rain
9:44 AM 48.2 °F 44.6 °F 87% 29.68 in 2.0 mi South 10.4 mph - 0.02 in Rain Light Rain
9:53 AM 48.0 °F 45.0 °F 89% 29.70 in 2.0 mi SSE 9.2 mph - 0.04 in Rain Light Rain
10:04 AM 48.2 °F 46.4 °F 93% 29.68 in 1.5 mi SE 8.1 mph - 0.01 in Rain Light Rain
10:14 AM 48.2 °F 46.4 °F 93% 29.68 in 1.5 mi SE 8.1 mph - 0.02 in Rain Light Rain
10:25 AM 48.2 °F 46.4 °F 93% 29.68 in 1.5 mi SE 8.1 mph - 0.03 in Rain Light Rain
10:41 AM 48.2 °F 46.4 °F 93% 29.69 in 1.5 mi South 3.5 mph - 0.03 in Rain Light Rain
10:53 AM 48.9 °F 46.9 °F 93% 29.71 in 1.5 mi SE 4.6 mph - 0.03 in Rain Light Rain
11:14 AM 50.0 °F 48.2 °F 94% 29.68 in 4.0 mi South 9.2 mph - 0.01 in   Overcast
11:53 AM 54.0 °F 51.1 °F 90% 29.70 in 10.0 mi SSW 12.7 mph - 0.01 in   Overcast
12:44 PM 53.6 °F 48.2 °F 82% 29.69 in 10.0 mi WSW 15.0 mph 21.9 mph N/A   Scattered Clouds
12:53 PM 55.9 °F 50.0 °F 80% 29.71 in 10.0 mi SW 13.8 mph 20.7 mph N/A   Scattered Clouds
1:53 PM 55.9 °F 46.9 °F 72% 29.73 in 10.0 mi SSW 16.1 mph 21.9 mph N/A   Scattered Clouds
2:53 PM 55.9 °F 46.0 °F 69% 29.75 in 10.0 mi SSW 15.0 mph 25.3 mph N/A   Mostly Cloudy
3:53 PM 57.0 °F 45.0 °F 64% 29.78 in 10.0 mi WSW 13.8 mph - N/A   Mostly Cloudy
4:53 PM 55.0 °F 44.1 °F 67% 29.81 in 10.0 mi SW 13.8 mph - N/A   Mostly Cloudy
5:53 PM 54.0 °F 44.1 °F 69% 29.83 in 10.0 mi SW 10.4 mph 20.7 mph N/A   Mostly Cloudy
6:53 PM 52.0 °F 44.1 °F 74% 29.87 in 10.0 mi SW 11.5 mph 25.3 mph N/A   Mostly Cloudy
7:35 PM 51.8 °F 44.6 °F 76% 29.85 in 10.0 mi South 13.8 mph - N/A   Mostly Cloudy
7:53 PM 51.1 °F 45.0 °F 80% 29.88 in 10.0 mi SSW 12.7 mph - N/A   Mostly Cloudy
8:53 PM 51.1 °F 46.0 °F 83% 29.89 in 9.0 mi SSW 10.4 mph - 0.00 in Rain Light Rain
9:53 PM 50.0 °F 46.9 °F 89% 29.91 in 10.0 mi SSW 13.8 mph - 0.01 in   Overcast
10:53 PM 50.0 °F 46.0 °F 86% 29.93 in 10.0 mi SSW 11.5 mph - N/A   Mostly Cloudy
11:53 PM 50.0 °F 46.0 °F 86% 29.93 in 10.0 mi South 12.7 mph - N/A   Overcast